This demonstration page uses our WeatherBlox Daily Observations layout. Learn more.

Left ArrowRight Arrow

Hourly Observations for May 15, 2021

Temp ( °F °C ) Dew Point ( °F °C ) Humidity (%) Winds ( mph kmh ) Pressure ( in mb ) Visibility ( mi km ) Precip ( " mm )
12:56 am 00:56 Clear 54 12.2 53 11.7 97 97 NE 7 11 30.03 1017 10 16 0.00 0.00
1:56 am 01:56 Clear 54 12.2 52 11.1 93 93 ENE 5 7 30.03 1017 9 14 0.00 0.00
2:56 am 02:56 Clear 54 12.2 52 11.1 93 93 NE 3 6 30.01 1016 7 11 0.00 0.00
3:56 am 03:56 Clear with Mist and Fog 52 11.1 51 10.6 97 97 NW 3 6 30.03 1017 5 8 0.00 0.00
4:56 am 04:56 Clear with Mist and Fog 50 10 49 9.4 96 96 NE 6 9 30.03 1017 4 6 0.00 0.00
5:05 am 05:05 Mostly Clear with Mist and Fog 50 10 48 9 94 94 NE 3 6 30.06 1018 3 4 0.00 0.00
5:56 am 05:56 Clear with Mist and Fog 51 10.6 51 10.6 100 100 Calm 30.02 1017 2 2 0.00 0.00
6:06 am 06:06 Mostly Cloudy with Mist and Fog 52 11 52 11 100 100 Calm 30.04 1017 1 1 0.00 0.00
6:10 am 06:10 Mostly Cloudy with Fog 52 11 52 11 100 100 Calm 30.04 1017 0 0 0.00 0.00
6:56 am 06:56 Cloudy with Fog 51 10.6 51 10.6 100 100 Calm 30.04 1017 0 0 0.00 0.00
7:00 am 07:00 Cloudy with Fog 52 11 52 11 100 100 Calm 30.06 1018 1 1 0.00 0.00
7:17 am 07:17 Cloudy with Mist and Fog 52 11 52 11 100 100 Calm 30.06 1018 1 2 0.00 0.00
7:21 am 07:21 Cloudy with Mist and Fog 52 11 52 11 100 100 WNW 3 6 30.06 1018 2 3 0.00 0.00
7:42 am 07:42 Cloudy with Mist and Fog 54 12 52 11 94 94 Calm 30.05 1018 3 5 0.00 0.00
7:51 am 07:51 Cloudy with Mist and Fog 54 12 54 12 100 100 Calm 30.05 1018 4 6 0.00 0.00
7:56 am 07:56 Cloudy with Mist and Fog 54 12.2 53 11.7 97 97 Calm 30.04 1017 4 6 0.00 0.00
8:56 am 08:56 Cloudy 57 13.9 55 12.8 93 93 W 3 6 30.06 1018 9 14 0.00 0.00
9:26 am 09:26 Partly Cloudy 59 15 55 13 88 88 NNW 3 6 30.04 1017 10 16 0.00 0.00
9:56 am 09:56 Sunny 62 16.7 57 13.9 84 84 N 3 6 30.05 1018 10 16 0.00 0.00
10:56 am 10:56 Partly Cloudy 66 18.9 58 14.4 75 75 ENE 5 7 30.06 1018 10 16 0.00 0.00
11:56 am 11:56 Partly Cloudy 67 19.4 56 13.3 68 68 VRB 3 6 30.05 1018 10 16 0.00 0.00
12:56 pm 12:56 Mostly Cloudy 69 20.6 56 13.3 63 63 SE 6 9 30.03 1017 10 16 0.00 0.00
1:56 pm 13:56 Sunny 72 22.2 55 12.8 55 55 VRB 3 6 30.02 1017 10 16 0.00 0.00
2:56 pm 14:56 Sunny 74 23.3 55 12.8 52 52 E 8 13 29.99 1016 10 16 0.00 0.00
3:56 pm 15:56 Partly Cloudy 73 22.8 53 11.7 50 50 E 8 13 29.98 1015 10 16 0.00 0.00
4:56 pm 16:56 Mostly Cloudy 75 23.9 54 12.2 48 48 ESE 12 19 29.96 1015 10 16 0.00 0.00
5:56 pm 17:56 Cloudy 74 23.3 53 11.7 48 48 ESE 12 19 29.96 1015 10 16 0.00 0.00
6:56 pm 18:56 Cloudy 73 22.8 54 12.2 51 51 SE 9 15 29.96 1015 10 16 0.00 0.00
7:56 pm 19:56 Cloudy 71 21.7 55 12.8 57 57 S 15 24 29.96 1014 10 16 0.00 0.00
8:56 pm 20:56 Cloudy 68 20 57 13.9 68 68 SSE 10 17 29.96 1014 10 16 0.00 0.00
9:56 pm 21:56 Mostly Cloudy 65 18.3 57 13.9 76 76 ESE 9 15 29.95 1014 10 16 0.00 0.00
10:56 pm 22:56 Mostly Clear 65 18.3 57 13.9 76 76 SE 12 19 29.96 1015 10 16 0.00 0.00
11:56 pm 23:56 Mostly Cloudy 65 18.3 58 14.4 78 78 SE 14 22 29.98 1015 10 16 0.00 0.00

Powered by AerisWeather